Вернуться в каталог

DELTA 1 DEB

АктивенPO
NORAD 8970·DEBRIS·🇺🇸 United States

Запущен Jan 22, 1975 с Vandenberg Space Force Base

Loading…

Ближайшие Пролёты (ближайшие 24 часа)

TLE

СвежийSource: Space-Track

Эпоха: Sep 14, 2026, 13:52 UTC

1 08970U 75004BC  26257.57784410  .00001203  00000-0  31392-3 0  9995
2 08970  97.3202  11.9747 0099782 280.6403  78.3568 14.48062825632240

Отслеживайте DELTA 1 DEB в реальном времени с AllMySat

Download on the App Store